Погода в Тбилиси

Погода в Тбилиси : погода сейчас, прогноз погоды и архив. Всё, что Вы хотите узнать о погоде в Тбилиси!

Поиск расширенной информации на нашем сайте:

Другие новости

Новости СМИ2

Главная страница сайта

Новости сайта

03.07.2017

Напоминаем, что на нашем специализированном сайте Метеоцентр.Азия вы можете получить высокодетализированные автоматические прогнозы погоды по пунктам России, СНГ и мира в авиационном формате (включающие направление и скорость ветра, видимость, явления погоды, количество и форму облачности, нижнюю и верхнюю границу облачности).

Рекомендуем: ауди БМВ мерседес кузовной ремонт

Погода в Тбилиси - сегодня

Время (UTC), дата Ветер
(°,м/с) 
Видим.   Явления Облачность Т
(°С)
Тd
(°С)
f(%) Тe
(°С)
Pmin
(гПа)
dP
(гПа)
Po
(мм)
O2
(г/м3)
Тmin Tmax R s Состояние
почвы
15 17.11.17 140 (ЮВ) н/о    9/9 600 м 
[Cu hum]
+13.1 +8.5 74 +12  1022.4  0.2  729  279    +15.5       
18 17.11.17 160 (Ю) н/о    10/10 600 м 
[Ns]
+12.5 +11 91 +15  1023.3  0.9  730  279    +15.5       
21 17.11.17 тихо ()   н/о    10/10 600 м 
[Ns]
+11.4 +10.9 97 +14  1024.5  0.9  730  280           
00 18.11.17 140 (ЮВ) н/о    10/10 600 м 
[Ns]
+10.9 +10.9 100 +13  1025.1  0.4  731  281           
03 18.11.17 160 (Ю) н/о    10/10 600 м 
[Ns]
+9.8 +9.5 98 +10  1025.7  0.4  731  283           
06 18.11.17 160 (Ю) 4000 м  дымка  10/10 600 м 
[Ns]
+11.4 +10 91 +13  1026  0.6  731  281           
09 18.11.17 140 (ЮВ) 4000 м  дымка  9/9 600 м 
[Cu hum]
+13.1 +7.6 69 +13  1024.9  -0.8  731  280           
12 18.11.17 140 (ЮВ) 20000 м    4/4 600 м 
[Cu hum]
+14.2 +7 62 +14  1023.5  -1.3  730  278           
15 18.11.17 290 (З) н/о    3/0 средняя 
[As trans]
+9.6 +8 90 +9  1023.6  -0.5  729  282    +14.4       
18 18.11.17 тихо ()   н/о    ясно 
+6.6 +6.6 100 +7  1024.3  0.1  729  286    +14.4       
21 18.11.17 тихо ()   н/о    ясно 
+5.7 +5.7 100 +6  1023.4  -1  729  287           
00 19.11.17 тихо ()   н/о    ясно 
+5 +5 100 +5  1023.4  -0.2  729  287           
06 19.11.17 тихо ()   10 км    5/3 600 м верхняя 
[Cu hum|Cs]
+7 +4.6 85 +7  1021.9  0.3  728  285           
09 19.11.17 тихо ()   2000 м  дымка  8/3 600 м средняя, верхняя 
[Cu hum|Ac lent|Ci]
+13.5 +4.6 55 +14  1018.6  -2  726  278           
12 19.11.17 тихо ()   4000 м  дымка  ясно 
+14.6 +6.4 58 +15  1016.6  -1.7  725  276           
15 19.11.17 тихо ()   н/о    ясно 
+9.8 +9 95 +10  1017.3  725  280    +15.5       
18 19.11.17 тихо ()   н/о    4/3 600 м средняя 
[Cu hum|Ac lent]
+7.2 +7 99 +7  1017.4  -0.6  725  283    +15.5       
21 19.11.17 тихо ()   н/о    10/10 600 м 
[Sc diur, vesp]
+8.3 +5.9 85 +8  1017.3  0.1  725  282           
00 20.11.17 тихо ()   н/о  слаб. дождь  10/10 600 м 
[Ns]
+8.2 +8.2 100 +8  1017.9  0.6  725  282           
03 20.11.17 тихо () -0{00}  н/о    н/о 
[]
+7.4 +7.1 98 +7  1017.9  -0.7  725  283         
06 20.11.17 тихо ()   4000 м    ясно 600 м 
+10 +9.4 96 +11  1017.2  0.3  725  280           
09 20.11.17 360 (С) 20000 м    ясно 
+16.2 +7.4 56 +17  1013.7  -2.3  723  274           
12 20.11.17 000 (С) 20000 м    8/5 600 м средняя, верхняя 
[Sc|Ac lent|Ci]
+17 +8 55 +18  1011.9  -1.5  722  272           
15 20.11.17 тихо ()   н/о    6/3 600 м средняя, верхняя 
[Cu hum|As trans|Cs]
+11.3 +8.6 83 +11  1012.7  -0.1  722  278    +18.8       
18 20.11.17 тихо ()   н/о    8/5 600 м средняя 
[Sc|As trans]
+10.3 +8.5 89 +10  1012.9  722  279    +18.8       
Время (UTC), дата Ветер
(°,м/с) 
Видим.   Явления Облачность Т
(°С)
Тd
(°С)
f(%) Тe
(°С)
Pmin
(гПа)
dP
(гПа)
Po
(мм)
O2
(г/м3)
Тmin Tmax R s Состояние
почвы

Для получения пояснительной информации подведите курсор к названию столбца.

ПОГОДА в Тбилиси - архив

Всё, что Вы хотите узнать о погоде в Тбилиси - удобно и подробно!

Выберите нужную дату (начиная с 1 января 2015* года) и нажмите кнопку "Найти".
Будут отображены архивные сводки погоды по пункту Тбилиси, начиная с указанной даты.


Отображать данные в формате CSV (для использования в таблицах Excel)


Внимание! Наш архив погоды предназначен исключительно для личного некоммерческого использования в познавательных целях. Если Вам необходимы официальные справки о состоянии погоды (для производственных, юридических, коммерческих и т.п. целей), обращайтесь в органы Росгидромета.

*Примечание: данная дата относится к архиву по метеостанциям СССР (Россия, СНГ, Балтия).
Архив по метеостанциям Зарубежной Европы и Азии (кроме Китая) хранится 10 дней, по другим регионам земного шара (Китай, Африка, Америка, Австралия, Океания) - 1 день.

Тбилиси - район местоположения метеостанции


Название, широта, долгота, высота метеостанции:
Тбилиси 41.7°ш. 44.8°д. 403 м над ур. моря [Грузия]

Дополнительная информация

В oтличие oт бoльшинства пoгoдных сайтoв мы публикуем пoдрoбную метеoинфoрмацию в детальнoм прoфессиoнальнoм фoрмате.

Характеристики температуры и влажнoсти вoздуха измеряются на высoте 2 м в тени вдали oт зданий и деревьев.
Скoрoсть ветра измеряется на высoте 10 м (на урoвне рoста челoвека скoрoсть ветра ниже в 1.5-2 раза). Если метеoстанция нахoдится в гoрoде или в лесу, тo скoрoсть ветра занижена на 2-4 м/с пo сравнению с oткрытым местoм. Скoрoсть ветра над акватoриями крупных рек и oзёр, а также на вершинах хoлмoв на 2-5 м/с выше, чем в oбычных услoвиях.
Атмoсфернoе давление в разных тoчках местнoсти мoжет значительнo oтличаться oт давления на метеoстанции, в зависимoсти oт услoвий рельефа (при пoдъёме на 10 м давление пoнижается примернo на 1 мм рт.ст.).